Regional Weather Roundup
Issued by NWS Jackson, KY

Home | Current Version | Previous Version | Graphics & Text | Print | Product List | Glossary On
Versions: 1 2 3 4 5 6 7 8 9 10 11 12 13 14 15 16 17 18 19 20 21 22 23 24 25 26 27 28
000
ASUS43 KJKL 270210
RWRJKL

EAST KENTUCKY HOURLY WEATHER ROUNDUP
NATIONAL WEATHER SERVICE JACKSON KY
1000 PM EDT TUE JUL 26 2016

NOTE: "FAIR" INDICATES FEW OR NO CLOUDS BELOW 12,000 FEET WITH
NO SIGNIFICANT WEATHER AND/OR OBSTRUCTIONS TO VISIBILITY.

* THESE REPORTS ARE NOT UNDER NWS QUALITY CONTROL AND MAY NOT
  REPORT WEATHER SUCH AS PRECIPITATION AND FOG.

KYZ079-080-083-085-087-088-110-112-115-119-120-270300
...EASTERN KENTUCKY...

CITY           SKY/WX    TMP DP  RH WIND       PRES   REMARKS
JACKSON        CLEAR     76  70  82 CALM      30.05R
LONDON         CLEAR     82  73  74 CALM      30.03R
SOMERSET*      PTCLDY    79  73  83 CALM      30.03R
MONTICELLO*    CLOUDY   N/A N/A N/A N9        30.03R
WILLIAMSBURG*  CLEAR     81  81 100 CALM      30.03R HX  91
MIDDLESBORO*   PTCLDY    79  73  82 W3        30.04R
HARLAN APT*      N/A     77  72  83 CALM      30.06R
PIKE CO APT*     N/A     74  72  91 CALM      30.06R
BIG SANDY APT* CLEAR     73  72  95 CALM      30.04S
MOREHEAD APT*  PTCLDY    73  72  94 CALM      30.04S
ASHLAND*       CLOUDY    73  73 100 CALM      30.00R
$$

KYZ035-036-041-042-044-050-067-078-099-270300
...CENTRAL KENTUCKY...

CITY           SKY/WX    TMP DP  RH WIND       PRES   REMARKS
MT STERLING*   CLEAR     75  72  88 CALM      30.04R
FLEMING/MASON* LGT RAIN  75  73  92 CALM      30.03S
DANVILLE*      CLEAR     77  73  88 CALM      30.04R
LEXINGTON      PTCLDY    78  73  84 NE6       30.03R
FRANKFORT      PTCLDY    77  73  87 NE3       30.01R
LOUISVILLE     MOCLDY    80  74  81 N6        29.99R
LEBANON*         N/A     81  73  78 NW3       30.01R
GLASGOW*       PTCLDY    81  78  89 CALM      29.99S HX  90
BOWLING GREEN  CLOUDY    87  75  67 CALM      29.98R HX  96
$$

KYZ091>093-OHZ055-061-077-WVZ005-015-034-035-042-270300
...SOUTHERN OHIO/WEST VIRGINIA...

CITY           SKY/WX    TMP DP  RH WIND       PRES   REMARKS
COVINGTON      CLOUDY    79  74  84 S5        30.01S
COLUMBUS       CLOUDY    79  72  79 S6        30.00R
DAYTON         CLOUDY    78  68  71 NW6       30.03R
WILMINGTON     CLOUDY    76  73  91 CALM      30.02R
HUNTINGTON       N/A     73  70  90 CALM      30.02R
CHARLESTON       N/A     74  72  93 CALM      30.02R
PINEVILLE*       N/A     73  70  89 MISG      30.12R FOG
BECKLEY          N/A     71  68  90 SW3       30.11F
BLUEFIELD        N/A     77  68  73 CALM      30.14R
LOGAN CO APT*    N/A     75  73  94 CALM      30.05R
$$

VAZ002-007-008-TNZ017-027-036-066-071-270300
...SOUTHWEST VIRGINIA/EAST TENNESSEE...

CITY           SKY/WX    TMP DP  RH WIND       PRES   REMARKS
WISE*            N/A     77  64  65 CALM      30.14R
JONESVILLE*      N/A     81  75  83 CALM      30.06S
ABINGDON*        N/A     80  70  71 CALM      30.09R
BRISTOL        MOCLDY    76  69  79 CALM      30.06R
MORRISTOWN*    MOCLDY    84  72  65 CALM      30.03R
SEVIERVILLE*   PTCLDY    81  70  69 S3        30.02R
KNOXVILLE      CLOUDY    83  71  67 CALM      30.01R
OAK RIDGE      CLOUDY    84  69  60 CALM      30.03R
CROSSVILLE     PTCLDY    78  72  81 CALM      30.08R
NASHVILLE      CLOUDY    84  74  71 SW5       30.01R HX  91
$$

...KEY TO REMARKS...
VSB - VISIBILITY IN MILES
WCI - WIND CHILL INDEX
HX  - HEAT INDEX

$$




USA.gov is the U.S. government's official web portal to all federal, state and local government web resources and services.